{"data":{"norad_id":65339,"intl_designator":"2025-189S","name":"STARLINK-34777","alt_names":[],"object_type":"PAYLOAD","status":"ACTIVE","operator":null,"country":"US","launch_date":"2025-08-27","launch_site_code":"AFETR","launch_vehicle":null,"mission":null,"orbit_class":"UNKNOWN","rcs_meters":null,"size_class":null,"mass_kg":null,"dimensions":null,"purposes":["comms"],"wikipedia_slug":null,"has_3d_model":false,"image_url":null,"decayed_at":null,"tle_current":{"epoch":"2026-05-25T04:53:52.821312Z","epoch_age_seconds":51252,"freshness":"FRESH","line1":"1 65339U 25189S   26145.20408358  .00016948  00000+0  55632-3 0  9990","line2":"2 65339  53.1575 211.1883 0000946  70.1514 289.9589 15.31718840 42830","mean_motion":15.3171884,"eccentricity":9.46e-5,"inclination_deg":53.1575,"raan_deg":211.1883,"arg_perigee_deg":70.1514,"mean_anomaly_deg":289.9589,"bstar":0.00055632,"rev_number":4283,"period_min":94.012031607576,"perigee_km":470.03593629068,"apogee_km":471.33173319261,"semimajor_km":6848.8208347416,"source":"CELESTRAK","updated_at":"2026-05-25T13:38:20.761627Z"}}}